Time,TemperatureF,DewpointF,PressureIn,WindDirection,WindDirectionDegrees,WindSpeedMPH,WindSpeedGustMPH,Humidity,HourlyPrecipIn,Conditions,Clouds,dailyrainin,SolarRadiationWatts/m^2,SoftwareType,DateUTC
2013-04-14 00:02:00,10.0,-1.0,-100.00,NW,325,2.0,6.0,59,0.00,,,0.00,0.000000,,2013-04-14 08:02:00,
2013-04-14 00:12:00,10.0,-1.0,-100.00,NW,325,2.0,6.0,59,0.00,,,0.00,0.000000,,2013-04-14 08:12:00,
2013-04-14 00:22:00,10.0,-1.0,-100.00,NW,325,2.0,6.0,59,0.00,,,0.00,0.000000,,2013-04-14 08:22:00,
2013-04-14 00:32:00,10.0,-1.0,-100.00,NW,325,2.0,6.0,59,0.00,,,0.00,0.000000,,2013-04-14 08:32:00,
2013-04-14 00:52:00,10.0,-1.0,-100.00,NNW,339,2.0,4.0,60,0.00,,,0.00,0.000000,,2013-04-14 08:52:00,
2013-04-14 01:02:00,10.0,-1.0,-100.00,NNW,339,2.0,4.0,60,0.00,,,0.00,0.000000,,2013-04-14 09:02:00,
2013-04-14 01:12:00,10.0,-1.0,-100.00,NNW,339,2.0,4.0,60,0.00,,,0.00,0.000000,,2013-04-14 09:12:00,
2013-04-14 01:22:00,10.0,-1.0,-100.00,NNW,339,2.0,4.0,60,0.00,,,0.00,0.000000,,2013-04-14 09:22:00,
2013-04-14 01:32:00,10.0,-1.0,-100.00,NNW,339,2.0,4.0,60,0.00,,,0.00,0.000000,,2013-04-14 09:32:00,
2013-04-14 01:53:00,10.0,-1.0,-100.00,WNW,296,2.0,4.0,60,0.00,,,0.00,0.000000,,2013-04-14 09:53:00,
2013-04-14 02:03:00,10.0,-1.0,-100.00,WNW,296,2.0,4.0,60,0.00,,,0.00,0.000000,,2013-04-14 10:03:00,
2013-04-14 02:12:00,10.0,-1.0,-100.00,WNW,296,2.0,4.0,60,0.00,,,0.00,0.000000,,2013-04-14 10:12:00,
2013-04-14 02:22:00,10.0,-1.0,-100.00,WNW,296,2.0,4.0,60,0.00,,,0.00,0.000000,,2013-04-14 10:22:00,
2013-04-14 02:32:00,10.0,-1.0,-100.00,WNW,296,2.0,4.0,60,0.00,,,0.00,0.000000,,2013-04-14 10:32:00,
2013-04-14 02:52:00,9.0,-2.0,-100.00,NNW,330,2.0,4.0,61,0.00,,,0.00,0.000000,,2013-04-14 10:52:00,
2013-04-14 03:02:00,9.0,-2.0,-100.00,NNW,330,2.0,4.0,61,0.00,,,0.00,0.000000,,2013-04-14 11:02:00,
2013-04-14 03:12:00,9.0,-2.0,-100.00,NNW,330,2.0,4.0,61,0.00,,,0.00,0.000000,,2013-04-14 11:12:00,
2013-04-14 03:22:00,9.0,-2.0,-100.00,NNW,330,2.0,4.0,61,0.00,,,0.00,0.000000,,2013-04-14 11:22:00,
2013-04-14 03:32:00,9.0,-2.0,-100.00,NNW,330,2.0,4.0,61,0.00,,,0.00,0.000000,,2013-04-14 11:32:00,
2013-04-14 03:53:00,9.0,-1.0,-100.00,NNW,334,2.0,3.0,62,0.00,,,0.00,0.000000,,2013-04-14 11:53:00,
2013-04-14 04:02:00,9.0,-1.0,-100.00,NNW,334,2.0,3.0,62,0.00,,,0.00,0.000000,,2013-04-14 12:02:00,
2013-04-14 04:12:00,9.0,-1.0,-100.00,NNW,334,2.0,3.0,62,0.00,,,0.00,0.000000,,2013-04-14 12:12:00,
2013-04-14 04:21:00,9.0,-1.0,-100.00,NNW,334,2.0,3.0,62,0.00,,,0.00,0.000000,,2013-04-14 12:21:00,
2013-04-14 04:32:00,9.0,-1.0,-100.00,NNW,334,2.0,3.0,62,0.00,,,0.00,0.000000,,2013-04-14 12:32:00,
2013-04-14 04:52:00,9.0,-2.0,-100.00,WNW,285,2.0,3.0,61,0.00,,,0.00,0.000000,,2013-04-14 12:52:00,
2013-04-14 05:02:00,9.0,-2.0,-100.00,WNW,285,2.0,3.0,61,0.00,,,0.00,0.000000,,2013-04-14 13:02:00,
2013-04-14 05:12:00,9.0,-2.0,-100.00,WNW,285,2.0,3.0,61,0.00,,,0.00,0.000000,,2013-04-14 13:12:00,
2013-04-14 05:22:00,9.0,-2.0,-100.00,WNW,285,2.0,3.0,61,0.00,,,0.00,0.000000,,2013-04-14 13:22:00,
2013-04-14 05:32:00,9.0,-2.0,-100.00,WNW,285,2.0,3.0,61,0.00,,,0.00,0.000000,,2013-04-14 13:32:00,
2013-04-14 05:52:00,8.0,-2.0,-100.00,NW,318,3.0,5.0,64,0.00,,,0.00,0.000000,,2013-04-14 13:52:00,
2013-04-14 06:02:00,8.0,-2.0,-100.00,NW,318,3.0,5.0,64,0.00,,,0.00,0.000000,,2013-04-14 14:02:00,
2013-04-14 06:12:00,8.0,-2.0,-100.00,NW,318,3.0,5.0,64,0.00,,,0.00,0.000000,,2013-04-14 14:12:00,
2013-04-14 06:22:00,8.0,-2.0,-100.00,NW,318,3.0,5.0,64,0.00,,,0.00,0.000000,,2013-04-14 14:22:00,
2013-04-14 06:32:00,8.0,-2.0,-100.00,NW,318,3.0,5.0,64,0.00,,,0.00,0.000000,,2013-04-14 14:32:00,
2013-04-14 06:33:00,7.0,-3.0,-100.00,WNW,296,3.0,6.0,64,0.00,,,0.00,2.000000,,2013-04-14 14:33:00,
2013-04-14 06:53:00,7.0,-3.0,-100.00,WNW,296,3.0,6.0,64,0.00,,,0.00,2.000000,,2013-04-14 14:53:00,
2013-04-14 07:02:00,7.0,-3.0,-100.00,WNW,296,3.0,6.0,64,0.00,,,0.00,2.000000,,2013-04-14 15:02:00,
2013-04-14 07:12:00,7.0,-3.0,-100.00,WNW,296,3.0,6.0,64,0.00,,,0.00,2.000000,,2013-04-14 15:12:00,
2013-04-14 07:22:00,7.0,-3.0,-100.00,WNW,296,3.0,6.0,64,0.00,,,0.00,2.000000,,2013-04-14 15:22:00,
2013-04-14 07:53:00,7.0,-2.0,-100.00,NW,312,3.0,5.0,65,0.00,,,0.00,44.000000,,2013-04-14 15:53:00,
2013-04-14 08:04:00,7.0,-2.0,-100.00,NW,312,3.0,5.0,65,0.00,,,0.00,44.000000,,2013-04-14 16:04:00,
2013-04-14 08:13:00,7.0,-2.0,-100.00,NW,312,3.0,5.0,65,0.00,,,0.00,44.000000,,2013-04-14 16:13:00,
2013-04-14 08:22:00,7.0,-2.0,-100.00,NW,312,3.0,5.0,65,0.00,,,0.00,44.000000,,2013-04-14 16:22:00,
2013-04-14 08:32:00,7.0,-2.0,-100.00,NW,312,3.0,5.0,65,0.00,,,0.00,44.000000,,2013-04-14 16:32:00,
2013-04-14 08:53:00,7.0,-3.0,-100.00,WNW,302,2.0,5.0,63,0.00,,,0.00,151.000000,,2013-04-14 16:53:00,
2013-04-14 09:02:00,7.0,-3.0,-100.00,WNW,302,2.0,5.0,63,0.00,,,0.00,151.000000,,2013-04-14 17:02:00,
2013-04-14 09:12:00,7.0,-3.0,-100.00,WNW,302,2.0,5.0,63,0.00,,,0.00,151.000000,,2013-04-14 17:12:00,
2013-04-14 09:22:00,7.0,-3.0,-100.00,WNW,302,2.0,5.0,63,0.00,,,0.00,151.000000,,2013-04-14 17:22:00,
2013-04-14 09:32:00,7.0,-3.0,-100.00,WNW,302,2.0,5.0,63,0.00,,,0.00,151.000000,,2013-04-14 17:32:00,
2013-04-14 09:53:00,7.0,-2.0,-100.00,SW,225,3.0,7.0,65,0.00,,,0.00,358.000000,,2013-04-14 17:53:00,
2013-04-14 10:02:00,7.0,-2.0,-100.00,SW,225,3.0,7.0,65,0.00,,,0.00,358.000000,,2013-04-14 18:02:00,
2013-04-14 10:12:00,7.0,-2.0,-100.00,SW,225,3.0,7.0,65,0.00,,,0.00,358.000000,,2013-04-14 18:12:00,
2013-04-14 10:22:00,7.0,-2.0,-100.00,SW,225,3.0,7.0,65,0.00,,,0.00,358.000000,,2013-04-14 18:22:00,
2013-04-14 10:32:00,7.0,-2.0,-100.00,SW,225,3.0,7.0,65,0.00,,,0.00,358.000000,,2013-04-14 18:32:00,
2013-04-14 10:53:00,10.0,-1.0,-100.00,North,9,2.0,5.0,59,0.00,,,0.00,427.000000,,2013-04-14 18:53:00,
2013-04-14 11:03:00,10.0,-1.0,-100.00,North,9,2.0,5.0,59,0.00,,,0.00,427.000000,,2013-04-14 19:03:00,
2013-04-14 11:12:00,10.0,-1.0,-100.00,North,9,2.0,5.0,59,0.00,,,0.00,427.000000,,2013-04-14 19:12:00,
2013-04-14 11:22:00,10.0,-1.0,-100.00,North,9,2.0,5.0,59,0.00,,,0.00,427.000000,,2013-04-14 19:22:00,
2013-04-14 11:32:00,10.0,-1.0,-100.00,North,9,2.0,5.0,59,0.00,,,0.00,427.000000,,2013-04-14 19:32:00,
2013-04-14 11:52:00,13.0,0.0,-100.00,NE,50,1.0,3.0,54,0.00,,,0.00,556.000000,,2013-04-14 19:52:00,
2013-04-14 12:02:00,13.0,0.0,-100.00,NE,50,1.0,3.0,54,0.00,,,0.00,556.000000,,2013-04-14 20:02:00,
2013-04-14 12:12:00,13.0,0.0,-100.00,NE,50,1.0,3.0,54,0.00,,,0.00,556.000000,,2013-04-14 20:12:00,
2013-04-14 12:22:00,13.0,0.0,-100.00,NE,50,1.0,3.0,54,0.00,,,0.00,556.000000,,2013-04-14 20:22:00,
2013-04-14 12:32:00,13.0,0.0,-100.00,NE,50,1.0,3.0,54,0.00,,,0.00,556.000000,,2013-04-14 20:32:00,
2013-04-14 12:52:00,15.0,-1.0,-100.00,NNW,343,1.0,2.0,49,0.00,,,0.00,647.000000,,2013-04-14 20:52:00,
2013-04-14 13:02:00,15.0,-1.0,-100.00,NNW,343,1.0,2.0,49,0.00,,,0.00,647.000000,,2013-04-14 21:02:00,
2013-04-14 13:12:00,15.0,-1.0,-100.00,NNW,343,1.0,2.0,49,0.00,,,0.00,647.000000,,2013-04-14 21:12:00,
2013-04-14 13:22:00,15.0,-1.0,-100.00,NNW,343,1.0,2.0,49,0.00,,,0.00,647.000000,,2013-04-14 21:22:00,
2013-04-14 13:32:00,15.0,-1.0,-100.00,NNW,343,1.0,2.0,49,0.00,,,0.00,647.000000,,2013-04-14 21:32:00,
2013-04-14 13:53:00,15.0,1.0,-100.00,North,6,1.0,3.0,53,0.00,,,0.00,681.000000,,2013-04-14 21:53:00,
2013-04-14 14:02:00,15.0,1.0,-100.00,North,6,1.0,3.0,53,0.00,,,0.00,681.000000,,2013-04-14 22:02:00,
2013-04-14 14:12:00,15.0,1.0,-100.00,North,6,1.0,3.0,53,0.00,,,0.00,681.000000,,2013-04-14 22:12:00,
2013-04-14 14:22:00,15.0,1.0,-100.00,North,6,1.0,3.0,53,0.00,,,0.00,681.000000,,2013-04-14 22:22:00,
2013-04-14 14:32:00,15.0,1.0,-100.00,North,6,1.0,3.0,53,0.00,,,0.00,681.000000,,2013-04-14 22:32:00,
2013-04-14 14:52:00,16.0,3.0,-100.00,NE,42,1.0,3.0,55,0.00,,,0.00,655.000000,,2013-04-14 22:52:00,
2013-04-14 15:02:00,16.0,3.0,-100.00,NE,42,1.0,3.0,55,0.00,,,0.00,655.000000,,2013-04-14 23:02:00,
2013-04-14 15:12:00,16.0,3.0,-100.00,NE,42,1.0,3.0,55,0.00,,,0.00,655.000000,,2013-04-14 23:12:00,
2013-04-14 15:22:00,16.0,3.0,-100.00,NE,42,1.0,3.0,55,0.00,,,0.00,655.000000,,2013-04-14 23:22:00,
2013-04-14 15:32:00,16.0,3.0,-100.00,NE,42,1.0,3.0,55,0.00,,,0.00,655.000000,,2013-04-14 23:32:00,
2013-04-14 15:53:00,17.0,3.0,-100.00,NNW,348,1.0,4.0,54,0.00,,,0.00,595.000000,,2013-04-14 23:53:00,
2013-04-14 16:02:00,17.0,3.0,-100.00,NNW,348,1.0,4.0,54,0.00,,,0.00,595.000000,,2013-04-15 00:02:00,
2013-04-14 16:12:00,17.0,3.0,-100.00,NNW,348,1.0,4.0,54,0.00,,,0.00,595.000000,,2013-04-15 00:12:00,
2013-04-14 16:22:00,17.0,3.0,-100.00,NNW,348,1.0,4.0,54,0.00,,,0.00,595.000000,,2013-04-15 00:22:00,
2013-04-14 16:32:00,17.0,3.0,-100.00,NNW,348,1.0,4.0,54,0.00,,,0.00,595.000000,,2013-04-15 00:32:00,
2013-04-14 16:52:00,18.0,4.0,-100.00,West,267,1.0,3.0,53,0.00,,,0.00,503.000000,,2013-04-15 00:52:00,
2013-04-14 17:02:00,18.0,4.0,-100.00,West,267,1.0,3.0,53,0.00,,,0.00,503.000000,,2013-04-15 01:02:00,
2013-04-14 17:12:00,18.0,4.0,-100.00,West,267,1.0,3.0,53,0.00,,,0.00,503.000000,,2013-04-15 01:12:00,
2013-04-14 17:22:00,18.0,4.0,-100.00,West,267,1.0,3.0,53,0.00,,,0.00,503.000000,,2013-04-15 01:22:00,
2013-04-14 17:32:00,18.0,4.0,-100.00,West,267,1.0,3.0,53,0.00,,,0.00,503.000000,,2013-04-15 01:32:00,
2013-04-14 17:52:00,18.0,4.0,-100.00,West,266,2.0,5.0,54,0.00,,,0.00,388.000000,,2013-04-15 01:52:00,
2013-04-14 18:02:00,18.0,4.0,-100.00,West,266,2.0,5.0,54,0.00,,,0.00,388.000000,,2013-04-15 02:02:00,
2013-04-14 18:12:00,18.0,4.0,-100.00,West,266,2.0,5.0,54,0.00,,,0.00,388.000000,,2013-04-15 02:12:00,
2013-04-14 18:22:00,18.0,4.0,-100.00,West,266,2.0,5.0,54,0.00,,,0.00,388.000000,,2013-04-15 02:22:00,
2013-04-14 18:32:00,18.0,4.0,-100.00,West,266,2.0,5.0,54,0.00,,,0.00,388.000000,,2013-04-15 02:32:00,
2013-04-14 18:52:00,16.0,4.0,-100.00,West,272,4.0,8.0,58,0.00,,,0.00,260.000000,,2013-04-15 02:52:00,
2013-04-14 19:12:00,16.0,4.0,-100.00,West,272,4.0,8.0,58,0.00,,,0.00,260.000000,,2013-04-15 03:12:00,
2013-04-14 19:22:00,16.0,4.0,-100.00,West,272,4.0,8.0,58,0.00,,,0.00,260.000000,,2013-04-15 03:22:00,
2013-04-14 19:32:00,16.0,4.0,-100.00,West,272,4.0,8.0,58,0.00,,,0.00,260.000000,,2013-04-15 03:32:00,
2013-04-14 19:54:00,16.0,2.0,-100.00,NW,313,2.0,5.0,54,0.00,,,0.00,138.000000,,2013-04-15 03:54:00,
2013-04-14 20:03:00,16.0,2.0,-100.00,NW,313,2.0,5.0,54,0.00,,,0.00,138.000000,,2013-04-15 04:03:00,
2013-04-14 20:13:00,16.0,2.0,-100.00,NW,313,2.0,5.0,54,0.00,,,0.00,138.000000,,2013-04-15 04:13:00,
2013-04-14 20:22:00,16.0,2.0,-100.00,NW,313,2.0,5.0,54,0.00,,,0.00,138.000000,,2013-04-15 04:22:00,
2013-04-14 20:32:00,16.0,2.0,-100.00,NW,313,2.0,5.0,54,0.00,,,0.00,138.000000,,2013-04-15 04:32:00,
2013-04-14 20:52:00,16.0,3.0,-100.00,WNW,292,1.0,4.0,56,0.00,,,0.00,22.000000,,2013-04-15 04:52:00,
2013-04-14 21:02:00,16.0,3.0,-100.00,WNW,292,1.0,4.0,56,0.00,,,0.00,22.000000,,2013-04-15 05:02:00,
2013-04-14 21:12:00,16.0,3.0,-100.00,WNW,292,1.0,4.0,56,0.00,,,0.00,22.000000,,2013-04-15 05:12:00,
2013-04-14 21:22:00,16.0,3.0,-100.00,WNW,292,1.0,4.0,56,0.00,,,0.00,22.000000,,2013-04-15 05:22:00,
2013-04-14 21:32:00,16.0,3.0,-100.00,WNW,292,1.0,4.0,56,0.00,,,0.00,22.000000,,2013-04-15 05:32:00,
2013-04-14 21:52:00,12.0,2.0,-100.00,NW,308,2.0,4.0,62,0.00,,,0.00,1.000000,,2013-04-15 05:52:00,
2013-04-14 22:02:00,12.0,2.0,-100.00,NW,308,2.0,4.0,62,0.00,,,0.00,1.000000,,2013-04-15 06:02:00,
2013-04-14 22:12:00,12.0,2.0,-100.00,NW,308,2.0,4.0,62,0.00,,,0.00,1.000000,,2013-04-15 06:12:00,
2013-04-14 22:22:00,12.0,2.0,-100.00,NW,308,2.0,4.0,62,0.00,,,0.00,1.000000,,2013-04-15 06:22:00,
2013-04-14 22:32:00,12.0,2.0,-100.00,NW,308,2.0,4.0,62,0.00,,,0.00,1.000000,,2013-04-15 06:32:00,
2013-04-14 22:52:00,12.0,1.0,-100.00,NW,307,2.0,4.0,60,0.00,,,0.00,0.000000,,2013-04-15 06:52:00,
2013-04-14 23:02:00,12.0,1.0,-100.00,NW,307,2.0,4.0,60,0.00,,,0.00,0.000000,,2013-04-15 07:02:00,
2013-04-14 23:53:00,12.0,2.0,-100.00,NNW,343,5.0,7.0,62,0.00,,,0.00,0.000000,,2013-04-15 07:53:00,